This is the latest recevied weather packets stored in our database for station/object KE5VT. If no packets are shown the sender has not sent any weather packets the latest 10 day(s).
| Time | Temp. | Humidity | Pressure | Rain* | Wind** | Luminosity | Snow |
|---|---|---|---|---|---|---|---|
| 1777133838 | 27.78° C | 44% | 1006.1 hPa | 0 mm | - | 685 W/m² | - |
| 1777133533 | 27.22° C | 44% | 1006.1 hPa | 0 mm | - | 669 W/m² | - |
| 1777133228 | 28.33° C | 44% | 1006.1 hPa | 0 mm | - | 649 W/m² | - |
| 1777132928 | 27.78° C | 45% | 1006.3 hPa | 0 mm | - | 652 W/m² | - |
| 1777132624 | 27.78° C | 45% | 1006.4 hPa | 0 mm | - | 642 W/m² | - |
| 1777132321 | 26.67° C | 46% | 1006.5 hPa | 0 mm | - | 634 W/m² | - |
| 1777132017 | 26.67° C | 47% | 1006.5 hPa | 0 mm | - | 633 W/m² | - |
| 1777131716 | 27.22° C | 47% | 1006.6 hPa | 0 mm | - | 620 W/m² | - |
| 1777131415 | 26.11° C | 49% | 1006.6 hPa | 0 mm | - | 604 W/m² | - |
| 1777131114 | 25.56° C | 49% | 1006.7 hPa | 0 mm | - | 601 W/m² | - |
| 1777130810 | 25.56° C | 50% | 1006.8 hPa | 0 mm | - | 481 W/m² | - |
| 1777130506 | 25.56° C | 51% | 1006.8 hPa | 0 mm | - | 378 W/m² | - |
| 1777130202 | 25° C | 53% | 1006.8 hPa | 0 mm | - | 116 W/m² | - |
| 1777129899 | 25° C | 53% | 1006.6 hPa | 0 mm | - | 117 W/m² | - |
| 1777129594 | 25° C | 54% | 1006.7 hPa | 0 mm | - | 301 W/m² | - |
| 1777129293 | 25° C | 54% | 1006.8 hPa | 0 mm | - | 101 W/m² | - |
| 1777128989 | 24.44° C | 53% | 1006.6 hPa | 0 mm | - | 159 W/m² | - |
| 1777128685 | 24.44° C | 53% | 1006.8 hPa | 0 mm | - | 157 W/m² | - |
| 1777128384 | 23.89° C | 54% | 1006.9 hPa | 0 mm | - | 87 W/m² | - |
| 1777128080 | 23.33° C | 55% | 1006.7 hPa | 0 mm | - | 80 W/m² | - |
| 1777127777 | 23.89° C | 56% | 1006.6 hPa | 0 mm | - | 80 W/m² | - |
| 1777127474 | 23.33° C | 59% | 1006.7 hPa | 0 mm | - | 97 W/m² | - |
| 1777127170 | 22.78° C | 60% | 1006.8 hPa | 0 mm | - | 176 W/m² | - |
| 1777126866 | 22.78° C | 60% | 1006.8 hPa | 0 mm | - | 79 W/m² | - |
| 1777126562 | 22.22° C | 60% | 1006.8 hPa | 0 mm | - | 106 W/m² | - |
* Rain latest hour (hover to see other rain measurements)
** Current wind speed in m/s (hover to see current wind gust speed)